Orr, MN

1:25 AM CDT on September 24, 2017 (GMT -0500)
Orr Regional

Weather History for KORB - October, 2013

Change the Weather History Date:

Wednesday, October 16, 2013

  Actual Average Record
Temperature  
Mean Temperature 42 °F -  
Max Temperature 53 °F 48 °F 69 °F (2012)
Min Temperature 30 °F 31 °F 14 °F (2002)
Degree Days  
Heating Degree Days 24    
Moisture  
Dew Point 33 °F    
Average Humidity 72    
Maximum Humidity 100    
Minimum Humidity 35    
Precipitation  
Precipitation 0.00 in - - ()
Sea Level Pressure  
Sea Level Pressure 29.84 in    
Wind  
Wind Speed 1 mph (SW)    
Max Wind Speed 7 mph    
Max Gust Speed -    
Visibility 10 miles    
Events      
Averages and records for this station are not official NWS values.
T = Trace of Precipitation, MM = Missing Value Source: NWS Daily Summary

Daily Weather History Graph

Daily Weather History Graph

Search for Another Location

Airport or City:

Trip Planner

Search our weather history database for the weather conditions in past years. The results will help you decide how hot, cold, wet, or windy it might be!

Date:

Astronomy

Oct. 16, 2013 Rise Set
Actual Time 7:32 AM CDT 6:20 PM CDT
Civil Twilight 7:01 AM CDT 6:51 PM CDT
Nautical Twilight 6:25 AM CDT 7:27 PM CDT
Astronomical Twilight 5:49 AM CDT 8:03 PM CDT
Moon 5:07 PM CDT (10/16) 4:51 AM CDT (10/16)
Length of Visible Light 11h 50m
Length of Day
10h 47m
Waxing Gibbous, 94% of the Moon is Illuminated
Oct 16
Waxing Gibbous
Oct 18
Full
Oct 26
Last Quarter
Nov 3
New
Nov 9
First Quarter

Hourly Weather History & Observations

Time (CDT) Temp. Windchill Dew Point Humidity Pressure Visibility Wind Dir Wind Speed Gust Speed Precip Events Conditions
12:13 AM 41.0 °F - 37.4 °F 87% 29.90 in 10.0 mi Calm Calm - N/A   Overcast
12:33 AM 41.0 °F - 35.6 °F 81% 29.90 in 10.0 mi Calm Calm - N/A   Overcast
12:53 AM 41.0 °F - 35.6 °F 81% 29.90 in 10.0 mi Calm Calm - N/A   Overcast
1:13 AM 41.0 °F - 35.6 °F 81% 29.90 in 10.0 mi Calm Calm - N/A   Overcast
1:33 AM 39.2 °F - 35.6 °F 87% 29.90 in 10.0 mi Calm Calm - N/A   Overcast
1:53 AM 39.2 °F - 35.6 °F 87% 29.90 in 10.0 mi Calm Calm - N/A   Overcast
2:13 AM 39.2 °F - 35.6 °F 87% 29.90 in 10.0 mi Calm Calm - N/A   Overcast
2:33 AM 39.2 °F - 35.6 °F 87% 29.90 in 10.0 mi Calm Calm - N/A   Overcast
2:53 AM 39.2 °F - 35.6 °F 87% 29.90 in 10.0 mi Calm Calm - N/A   Overcast
3:13 AM 39.2 °F - 35.6 °F 87% 29.89 in 10.0 mi Calm Calm - N/A   Overcast
3:33 AM 39.2 °F - 35.6 °F 87% 29.89 in 10.0 mi Calm Calm - N/A   Overcast
3:53 AM 39.2 °F - 35.6 °F 87% 29.88 in 10.0 mi Calm Calm - N/A   Overcast
4:13 AM 39.2 °F - 33.8 °F 81% 29.88 in 10.0 mi Calm Calm - N/A   Overcast
4:33 AM 39.2 °F - 33.8 °F 81% 29.88 in 10.0 mi Calm Calm - N/A   Overcast
4:53 AM 39.2 °F - 33.8 °F 81% 29.88 in 10.0 mi Calm Calm - N/A   Overcast
5:13 AM 39.2 °F - 33.8 °F 81% 29.88 in 10.0 mi Calm Calm - N/A   Overcast
5:33 AM 37.4 °F - 33.8 °F 87% 29.88 in 10.0 mi Calm Calm - N/A   Overcast
5:55 AM 35.6 °F - 32.0 °F 87% 29.88 in 10.0 mi Calm Calm - N/A   Scattered Clouds
6:13 AM 33.8 °F - 30.2 °F 87% 29.87 in 10.0 mi Calm Calm - N/A   Clear
6:33 AM 32.0 °F - 30.2 °F 93% 29.87 in 7.0 mi Calm Calm - N/A   Clear
6:53 AM 30.2 °F - 28.4 °F 93% 29.87 in 7.0 mi Calm Calm - N/A   Clear
7:13 AM 30.2 °F - 30.2 °F 100% 29.87 in 10.0 mi Calm Calm - N/A   Clear
7:33 AM 30.2 °F - 28.4 °F 93% 29.88 in 5.0 mi Calm Calm - N/A   Clear
7:53 AM 30.2 °F - 28.4 °F 93% 29.87 in 5.0 mi Calm Calm - N/A   Clear
8:13 AM 30.2 °F - 28.4 °F 93% 29.87 in 5.0 mi Calm Calm - N/A   Clear
8:33 AM 30.2 °F - 28.4 °F 93% 29.87 in 4.0 mi Calm Calm - N/A   Clear
8:53 AM 33.8 °F - 30.2 °F 87% 29.87 in 10.0 mi Calm Calm - N/A   Clear
9:13 AM 35.6 °F - 33.8 °F 93% 29.87 in 10.0 mi Calm Calm - N/A   Clear
9:33 AM 37.4 °F - 35.6 °F 93% 29.87 in 10.0 mi Calm Calm - N/A   Clear
9:53 AM 41.0 °F - 35.6 °F 81% 29.87 in 10.0 mi Calm Calm - N/A   Clear
10:13 AM 41.0 °F 39.0 °F 33.8 °F 76% 29.87 in 10.0 mi SSW 3.5 mph - N/A   Clear
10:33 AM 42.8 °F 41.1 °F 33.8 °F 70% 29.87 in 10.0 mi SSW 3.5 mph - N/A   Clear
10:53 AM 44.6 °F 43.1 °F 33.8 °F 66% 29.87 in 10.0 mi South 3.5 mph - N/A   Clear
11:13 AM 44.6 °F 43.1 °F 33.8 °F 66% 29.87 in 10.0 mi WSW 3.5 mph - N/A   Clear
11:33 AM 44.6 °F - 33.8 °F 66% 29.86 in 10.0 mi Calm Calm - N/A   Clear
11:53 AM 44.6 °F 42.2 °F 35.6 °F 71% 29.86 in 10.0 mi WSW 4.6 mph - N/A   Scattered Clouds
12:13 PM 48.2 °F - 35.6 °F 62% 29.85 in 10.0 mi WSW 4.6 mph - N/A   Scattered Clouds
12:33 PM 46.4 °F 42.9 °F 35.6 °F 66% 29.85 in 10.0 mi West 6.9 mph - N/A   Scattered Clouds
12:53 PM 46.4 °F 43.5 °F 33.8 °F 62% 29.84 in 10.0 mi WSW 5.8 mph - N/A   Scattered Clouds
1:14 PM 48.2 °F - 35.6 °F 62% 29.84 in 10.0 mi West 5.8 mph - N/A   Scattered Clouds
1:33 PM 48.2 °F - 35.6 °F 62% 29.83 in 10.0 mi West 5.8 mph - N/A   Scattered Clouds
1:53 PM 48.2 °F - 35.6 °F 62% 29.83 in 10.0 mi WSW 5.8 mph - N/A   Clear
2:13 PM 50.0 °F - 33.8 °F 54% 29.83 in 10.0 mi SW 5.8 mph - N/A   Clear
2:33 PM 50.0 °F - 33.8 °F 54% 29.82 in 10.0 mi SW 6.9 mph - N/A   Clear
2:53 PM 51.8 °F - 32.0 °F 47% 29.82 in 10.0 mi SSW 6.9 mph - N/A   Clear
3:13 PM 51.8 °F - 30.2 °F 44% 29.81 in 10.0 mi SW 5.8 mph - N/A   Clear
3:33 PM 51.8 °F - 28.4 °F 41% 29.81 in 10.0 mi West 4.6 mph - N/A   Clear
3:53 PM 53.6 °F - 28.4 °F 38% 29.80 in 10.0 mi SSW 4.6 mph - N/A   Clear
4:13 PM 53.6 °F - 26.6 °F 35% 29.80 in 10.0 mi SW 4.6 mph - N/A   Clear
4:33 PM 51.8 °F - 28.4 °F 41% 29.79 in 10.0 mi SW 3.5 mph - N/A   Clear
4:53 PM 51.8 °F - 30.2 °F 44% 29.79 in 10.0 mi SW 3.5 mph - N/A   Clear
5:13 PM 51.8 °F - 30.2 °F 44% 29.79 in 10.0 mi SW 3.5 mph - N/A   Clear
5:33 PM 51.8 °F - 30.2 °F 44% 29.79 in 10.0 mi Calm Calm - N/A   Clear
5:53 PM 48.2 °F - 32.0 °F 54% 29.79 in 10.0 mi SSW 3.5 mph - N/A   Clear
6:13 PM 46.4 °F - 32.0 °F 57% 29.79 in 10.0 mi Calm Calm - N/A   Clear
6:33 PM 46.4 °F - 32.0 °F 57% 29.79 in 10.0 mi Calm Calm - N/A   Clear
6:53 PM 42.8 °F - 32.0 °F 66% 29.79 in 10.0 mi Calm Calm - N/A   Clear
7:13 PM 42.8 °F - 32.0 °F 66% 29.79 in 10.0 mi Calm Calm - N/A   Clear
7:33 PM 42.8 °F - 32.0 °F 66% 29.79 in 10.0 mi Calm Calm - N/A   Clear
7:53 PM 42.8 °F - 32.0 °F 66% 29.79 in 10.0 mi Calm Calm - N/A   Clear
8:13 PM 41.0 °F - 32.0 °F 70% 29.79 in 10.0 mi Calm Calm - N/A   Clear
8:33 PM 41.0 °F - 32.0 °F 70% 29.79 in 10.0 mi Calm Calm - N/A   Clear
8:53 PM 41.0 °F - 32.0 °F 70% 29.79 in 10.0 mi Calm Calm - N/A   Clear
9:13 PM 39.2 °F - 30.2 °F 70% 29.79 in 10.0 mi Calm Calm - N/A   Clear
9:33 PM 39.2 °F - 32.0 °F 75% 29.79 in 10.0 mi Calm Calm - N/A   Clear
9:53 PM 39.2 °F - 30.2 °F 70% 29.78 in 10.0 mi Calm Calm - N/A   Clear
10:13 PM 39.2 °F - 30.2 °F 70% 29.78 in 10.0 mi Calm Calm - N/A   Clear
10:33 PM 37.4 °F - 30.2 °F 75% 29.78 in 10.0 mi Calm Calm - N/A   Clear
10:53 PM 39.2 °F - 30.2 °F 70% 29.78 in 10.0 mi Calm Calm - N/A   Clear
11:13 PM 39.2 °F - 32.0 °F 75% 29.78 in 10.0 mi Calm Calm - N/A   Clear
11:33 PM 39.2 °F - 32.0 °F 75% 29.78 in 10.0 mi Calm Calm - N/A   Clear
11:53 PM 41.0 °F - 32.0 °F 70% 29.77 in 10.0 mi Calm Calm - N/A   Clear